TimeMST,TemperatureF,Dew PointF,Humidity,Sea Level PressureIn,VisibilityMPH,Wind Direction,Wind SpeedMPH,Gust SpeedMPH,PrecipitationIn,Events,Conditions,WindDirDegrees,DateUTC
12:53 AM,-15.0,-18.9,82,30.32,10.0,ENE,3.5,-,N/A,,Clear,70,2013-01-03 07:53:00
1:53 AM,-18.9,-24.0,78,30.32,10.0,Calm,Calm,-,N/A,,Clear,0,2013-01-03 08:53:00
2:53 AM,-13.0,-17.0,82,30.35,9.0,Calm,Calm,-,N/A,,Clear,0,2013-01-03 09:53:00
3:53 AM,-17.0,-22.0,78,30.35,10.0,Calm,Calm,-,N/A,,Clear,0,2013-01-03 10:53:00
5:53 AM,-18.9,-24.0,78,30.79,10.0,Calm,Calm,-,N/A,,Clear,0,2013-01-03 12:53:00
6:53 AM,-20.0,-25.1,78,30.84,10.0,Calm,Calm,-,N/A,,Clear,0,2013-01-03 13:53:00
7:53 AM,-17.0,-22.0,78,30.84,10.0,Calm,Calm,-,N/A,,Clear,0,2013-01-03 14:53:00
8:53 AM,-11.0,-11.9,96,30.85,10.0,Calm,Calm,-,N/A,,Clear,0,2013-01-03 15:53:00
9:53 AM,-8.0,-9.9,91,30.85,10.0,Calm,Calm,-,N/A,,Clear,0,2013-01-03 16:53:00
10:53 AM,-4.0,-7.1,87,30.82,10.0,Calm,Calm,-,N/A,,Clear,0,2013-01-03 17:53:00
11:53 AM,1.9,-6.0,69,30.77,10.0,Calm,Calm,-,N/A,,Clear,0,2013-01-03 18:53:00
12:53 PM,5.0,-4.0,66,30.73,10.0,Calm,Calm,-,N/A,,Clear,0,2013-01-03 19:53:00
1:53 PM,8.1,-2.9,61,30.73,10.0,Calm,Calm,-,N/A,,Clear,0,2013-01-03 20:53:00
2:53 PM,9.0,-2.0,61,30.69,10.0,Calm,Calm,-,N/A,,Clear,0,2013-01-03 21:53:00
3:53 PM,7.0,-2.0,67,30.71,10.0,SE,3.5,-,N/A,,Clear,130,2013-01-03 22:53:00
4:53 PM,-0.0,-8.0,69,30.77,10.0,Calm,Calm,-,N/A,,Clear,0,2013-01-03 23:53:00
6:53 PM,-9.9,-14.1,82,30.85,10.0,NNE,4.6,-,N/A,,Clear,30,2013-01-04 01:53:00
7:53 PM,-6.0,-11.0,79,30.81,10.0,Calm,Calm,-,N/A,,Clear,0,2013-01-04 02:53:00
8:53 PM,-11.9,-15.0,86,30.80,10.0,Calm,Calm,-,N/A,,Clear,0,2013-01-04 03:53:00
9:53 PM,-13.0,-17.0,82,30.79,10.0,Calm,Calm,-,N/A,,Clear,0,2013-01-04 04:53:00
10:53 PM,-11.9,-16.1,82,30.76,5.0,East,3.5,-,N/A,,Clear,80,2013-01-04 05:53:00
11:53 PM,-13.0,-17.0,82,30.73,8.0,Calm,Calm,-,N/A,,Clear,0,2013-01-04 06:53:00